Weather History for KLVK - October, 2011

Change the Weather History Date:

Tuesday, October 18, 2011

  Actual Average Record
Temperature  
Mean Temperature 71 °F 62 °F  
Max Temperature 87 °F 76 °F 94 °F (1961)
Min Temperature 54 °F 49 °F 33 °F (1949)
Degree Days  
Heating Degree Days 0 3  
Month to date heating degree days 38 39  
Since 1 July heating degree days 49 63  
Cooling Degree Days 6 1  
Month to date cooling degree days 38 34  
Year to date cooling degree days 788 823  
Growing Degree Days 20 (Base 50)    
Moisture  
Dew Point 53 °F    
Average Humidity 63    
Maximum Humidity 93    
Minimum Humidity 32    
Precipitation  
Precipitation 0.00 in 0.03 in 0.22 in (2004)
Month to date precipitation 1.07 0.40  
Year to date precipitation 10.84 10.53  
Since 1 July precipitation 1.07 0.63  
Sea Level Pressure  
Sea Level Pressure 30.00 in    
Wind  
Wind Speed 7 mph (WNW)    
Max Wind Speed 23 mph    
Max Gust Speed 28 mph    
Visibility 10 miles    
Events      
T = Trace of Precipitation, MM = Missing Value Source: NWS Daily Summary

Daily Weather History Graph

Daily Weather History Graph

Search for Another Location

Airport or City:

Trip Planner

Search our weather history database for the weather conditions in past years. The results will help you decide how hot, cold, wet, or windy it might be!

Date:

Astronomy

Oct. 18, 2011 Rise Set
Actual Time 7:18 AM PDT 6:25 PM PDT
Civil Twilight 6:51 AM PDT 6:52 PM PDT
Nautical Twilight 6:21 AM PDT 7:22 PM PDT
Astronomical Twilight 5:50 AM PDT 7:53 PM PDT
Moon 11:16 PM PDT (10/18) 1:09 PM PDT (10/18)
Length of Visible Light 12h 00m
Length of Day
11h 07m
Waning Gibbous, 64% of the Moon is Illuminated
Oct 18
Waning Gibbous
Oct 19
Last Quarter
Oct 26
New
Nov 2
First Quarter
Nov 10
Full

Hourly Weather History & Observations

Time (PDT) Temp. Heat Index Dew Point Humidity Pressure Visibility Wind Dir Wind Speed Gust Speed Precip Events Conditions
12:53 AM 59.0 °F - 50.0 °F 72% 30.02 in 10.0 mi Calm Calm - N/A   Clear
1:53 AM 57.9 °F - 48.9 °F 72% 30.03 in 10.0 mi East 3.5 mph - N/A   Clear
2:53 AM 57.0 °F - 50.0 °F 77% 30.02 in 10.0 mi Calm Calm - N/A   Clear
3:53 AM 57.0 °F - 48.9 °F 74% 30.02 in 10.0 mi Calm Calm - N/A   Clear
5:53 AM 57.0 °F - 48.9 °F 74% 30.02 in 10.0 mi Calm Calm - N/A   Clear
6:53 AM 55.0 °F - 48.9 °F 80% 30.03 in 10.0 mi Calm Calm - N/A   Clear
8:53 AM 60.1 °F - 50.0 °F 69% 30.05 in 10.0 mi Calm Calm - N/A   Clear
9:53 AM 64.9 °F - 51.1 °F 61% 30.04 in 10.0 mi Calm Calm - N/A   Clear
10:53 AM 73.0 °F - 51.1 °F 46% 30.02 in 10.0 mi Variable 3.5 mph - N/A   Clear
11:53 AM 79.0 °F - 53.1 °F 40% 30.01 in 10.0 mi West 4.6 mph - N/A   Clear
12:53 PM 84.0 °F 82.5 °F 53.1 °F 34% 29.98 in 10.0 mi Variable 4.6 mph - N/A   Clear
1:53 PM 84.9 °F - 52.0 °F 32% 29.96 in 10.0 mi Variable 5.8 mph - N/A   Clear
2:33 PM 86.0 °F 84.5 °F 55.4 °F 35% 29.95 in 10.0 mi West 6.9 mph - N/A   Clear
2:53 PM 84.9 °F 83.9 °F 57.0 °F 38% 29.94 in 10.0 mi WNW 12.7 mph - N/A   Clear
2:56 PM 84.2 °F 83.5 °F 57.2 °F 40% 29.94 in 10.0 mi WNW 11.5 mph - N/A   Clear
3:53 PM 82.0 °F 82.0 °F 57.9 °F 44% 29.93 in 10.0 mi West 10.4 mph - N/A   Clear
4:53 PM 78.1 °F - 57.0 °F 48% 29.93 in 10.0 mi WNW 12.7 mph - N/A   Clear
6:53 PM 63.0 °F - 55.0 °F 75% 29.95 in 10.0 mi NW 11.5 mph - N/A   Clear
7:53 PM 61.0 °F - 55.0 °F 81% 29.98 in 10.0 mi WNW 15.0 mph - N/A   Clear
8:22 PM 57.2 °F - 55.4 °F 94% 30.00 in 6.0 mi WNW 19.6 mph - N/A   Scattered Clouds
8:30 PM 57.2 °F - 55.4 °F 94% 30.00 in 6.0 mi WNW 20.7 mph 25.3 mph N/A   Mostly Cloudy
8:53 PM 57.9 °F - 55.0 °F 90% 30.01 in 6.0 mi West 17.3 mph - N/A   Mostly Cloudy
9:53 PM 59.0 °F - 55.0 °F 87% 30.03 in 10.0 mi West 15.0 mph - N/A   Overcast
10:40 PM 59.0 °F - 55.4 °F 88% 30.03 in 10.0 mi West 8.1 mph - N/A   Overcast
10:53 PM 60.1 °F - 55.0 °F 83% 30.02 in 10.0 mi West 10.4 mph - N/A   Overcast